JAL981 RJTT-ROKJ

Flight info

Callsign JAL981
Flight time N/A
Altitude 30000
Route LAXAS Y56 TOHME Y54 KOHWA Y12 AYANO Y128 LAXEL Y52 TONAR Y525 ONC A582 NHC LAVON GURUX DORIS
Aircraft B738/M-SDE2E3FGHIRWXY/LB1

Departure

Time 2026-02-17 04:04
Airport Tokyo Haneda International Airport (RJTT)

Arrival

Time N/A
Airport Kumejima Airport (ROKJ)
Time Latitude Longitude Altitude Speed Heading
2026-02-17 03:46 35.54839 139.78243 26 ft 0 kts 71°
2026-02-17 03:51 35.54836 139.78231 26 ft 2 kts 70°
2026-02-17 03:51 35.54831 139.78215 27 ft 2 kts 71°
2026-02-17 03:52 35.54827 139.78199 26 ft 2 kts 71°
2026-02-17 03:52 35.54822 139.78182 26 ft 2 kts 71°
2026-02-17 03:52 35.54818 139.78167 27 ft 2 kts 73°
2026-02-17 03:52 35.54815 139.78152 22 ft 2 kts 83°
2026-02-17 03:53 35.54814 139.78140 24 ft 1 kts 107°
2026-02-17 03:53 35.54818 139.78130 26 ft 1 kts 134°
2026-02-17 03:53 35.54822 139.78125 25 ft 1 kts 142°
2026-02-17 03:53 35.54827 139.78121 26 ft 1 kts 146°
2026-02-17 03:54 35.54828 139.78120 26 ft 0 kts 147°
2026-02-17 03:55 35.54820 139.78125 26 ft 2 kts 150°
2026-02-17 03:55 35.54800 139.78140 25 ft 5 kts 150°
2026-02-17 03:55 35.54764 139.78165 23 ft 7 kts 150°
2026-02-17 03:55 35.54706 139.78205 25 ft 13 kts 150°
2026-02-17 03:56 35.54607 139.78275 24 ft 20 kts 150°
2026-02-17 03:56 35.54475 139.78370 23 ft 25 kts 149°
2026-02-17 03:56 35.54313 139.78485 26 ft 29 kts 150°
2026-02-17 03:56 35.54142 139.78607 20 ft 28 kts 150°
2026-02-17 03:57 35.53978 139.78724 21 ft 26 kts 150°
2026-02-17 03:57 35.53823 139.78833 19 ft 25 kts 150°
2026-02-17 03:57 35.53681 139.78935 18 ft 23 kts 149°
2026-02-17 03:57 35.53543 139.79032 19 ft 22 kts 150°
2026-02-17 03:58 35.53410 139.79127 17 ft 22 kts 148°
2026-02-17 03:58 35.53388 139.79290 19 ft 21 kts 59°
2026-02-17 03:58 35.53462 139.79443 19 ft 21 kts 59°
2026-02-17 03:59 35.53611 139.79758 22 ft 23 kts 60°
2026-02-17 03:59 35.53690 139.79925 20 ft 23 kts 60°
2026-02-17 03:59 35.53662 139.80055 20 ft 19 kts 149°
2026-02-17 03:59 35.53553 139.80133 27 ft 18 kts 150°
2026-02-17 04:00 35.53444 139.80210 30 ft 19 kts 150°
2026-02-17 04:00 35.53328 139.80293 35 ft 20 kts 150°
2026-02-17 04:00 35.53205 139.80380 40 ft 21 kts 150°
2026-02-17 04:00 35.53076 139.80471 47 ft 22 kts 150°
2026-02-17 04:01 35.52942 139.80506 46 ft 20 kts 221°
2026-02-17 04:01 35.52833 139.80383 49 ft 23 kts 222°
2026-02-17 04:01 35.52711 139.80245 48 ft 25 kts 223°
2026-02-17 04:01 35.52592 139.80133 51 ft 12 kts 185°
2026-02-17 04:02 35.52541 139.80181 48 ft 10 kts 132°
2026-02-17 04:02 35.52493 139.80246 48 ft 12 kts 131°
2026-02-17 04:02 35.52440 139.80321 49 ft 12 kts 130°
2026-02-17 04:03 35.52462 139.80417 52 ft 0 kts 42°
2026-02-17 04:03 35.52517 139.80479 50 ft 36 kts 42°
2026-02-17 04:03 35.52875 139.80882 49 ft 102 kts 43°
2026-02-17 04:03 35.53542 139.81634 58 ft 155 kts 41°
2026-02-17 04:04 35.54387 139.82606 513 ft 170 kts 45°
2026-02-17 04:04 35.54925 139.83889 1412 ft 170 kts 76°
2026-02-17 04:04 35.54779 139.85339 2126 ft 185 kts 113°
2026-02-17 04:04 35.54042 139.86779 2417 ft 212 kts 121°
2026-02-17 04:05 35.53158 139.88333 2722 ft 229 kts 122°
2026-02-17 04:05 35.52553 139.89396 3119 ft 229 kts 122°
2026-02-17 04:05 35.51347 139.91515 4026 ft 230 kts 124°
2026-02-17 04:05 35.50090 139.92740 4659 ft 237 kts 161°
2026-02-17 04:06 35.48427 139.92791 5135 ft 252 kts 197°
2026-02-17 04:06 35.46864 139.91786 5861 ft 254 kts 216°
2026-02-17 04:06 35.45525 139.90411 6907 ft 249 kts 222°
2026-02-17 04:07 35.43380 139.87990 8191 ft 255 kts 223°
2026-02-17 04:07 35.42063 139.86505 8984 ft 258 kts 224°
2026-02-17 04:07 35.40727 139.85013 9783 ft 261 kts 224°
2026-02-17 04:07 35.39372 139.83511 10418 ft 268 kts 225°
2026-02-17 04:08 35.37932 139.81920 10617 ft 291 kts 225°
2026-02-17 04:08 35.36370 139.80202 10792 ft 312 kts 224°
2026-02-17 04:08 35.34694 139.78367 10953 ft 333 kts 224°
2026-02-17 04:08 35.32915 139.76424 11112 ft 352 kts 224°
2026-02-17 04:09 35.31052 139.74395 11469 ft 363 kts 224°
2026-02-17 04:09 35.29134 139.72363 12041 ft 367 kts 224°
2026-02-17 04:09 35.27184 139.70333 12727 ft 369 kts 224°
2026-02-17 04:09 35.25221 139.68297 13371 ft 371 kts 225°
2026-02-17 04:10 35.23243 139.66243 13978 ft 374 kts 225°
2026-02-17 04:10 35.21273 139.64194 14541 ft 376 kts 225°
2026-02-17 04:10 35.19275 139.62115 15155 ft 377 kts 225°
2026-02-17 04:11 35.15257 139.57930 16274 ft 381 kts 225°
2026-02-17 04:11 35.13236 139.55826 16802 ft 384 kts 225°
2026-02-17 04:11 35.09274 139.51408 17822 ft 384 kts 235°
2026-02-17 04:12 35.07819 139.48697 18364 ft 381 kts 244°
2026-02-17 04:12 35.06732 139.45752 18825 ft 380 kts 253°
2026-02-17 04:12 35.06118 139.42614 19275 ft 381 kts 260°
2026-02-17 04:12 35.05619 139.39435 19730 ft 382 kts 260°
2026-02-17 04:13 35.05109 139.36244 20168 ft 384 kts 260°
2026-02-17 04:13 35.04593 139.33086 20604 ft 385 kts 260°
2026-02-17 04:13 35.04053 139.29844 21044 ft 386 kts 259°
2026-02-17 04:13 35.03516 139.26658 21445 ft 388 kts 260°
2026-02-17 04:14 35.02972 139.23435 21853 ft 390 kts 260°
2026-02-17 04:14 35.02430 139.20189 22250 ft 391 kts 260°
2026-02-17 04:14 35.01890 139.16930 22642 ft 392 kts 260°
2026-02-17 04:15 35.00802 139.10376 23391 ft 395 kts 261°
2026-02-17 04:15 35.00252 139.07074 23745 ft 397 kts 261°
2026-02-17 04:15 34.99702 139.03781 24064 ft 397 kts 261°
2026-02-17 04:15 34.99149 139.00484 24436 ft 397 kts 260°
2026-02-17 04:16 34.98699 138.97170 24772 ft 396 kts 265°
2026-02-17 04:16 34.98526 138.93812 25083 ft 396 kts 267°
2026-02-17 04:16 34.98369 138.90468 25390 ft 396 kts 267°
2026-02-17 04:16 34.98206 138.87149 25656 ft 396 kts 267°
2026-02-17 04:17 34.98037 138.83791 25919 ft 397 kts 267°
2026-02-17 04:17 34.97864 138.80434 26182 ft 397 kts 266°
2026-02-17 04:17 34.97687 138.77079 26474 ft 396 kts 266°
2026-02-17 04:17 34.97511 138.73751 26827 ft 392 kts 266°
2026-02-17 04:18 34.97335 138.70445 27219 ft 389 kts 266°
2026-02-17 04:18 34.97159 138.67166 27596 ft 386 kts 266°
2026-02-17 04:18 34.96983 138.63910 27943 ft 384 kts 266°
2026-02-17 04:19 34.96633 138.57457 28680 ft 379 kts 266°
2026-02-17 04:19 34.96459 138.54267 29062 ft 376 kts 266°
2026-02-17 04:19 34.96285 138.51100 29427 ft 373 kts 266°
2026-02-17 04:19 34.96111 138.47954 29765 ft 371 kts 266°
2026-02-17 04:20 34.95938 138.44824 30069 ft 369 kts 266°
2026-02-17 04:20 34.95766 138.41740 30078 ft 370 kts 266°
2026-02-17 04:20 34.95414 138.35479 30087 ft 370 kts 266°
2026-02-17 04:21 34.95060 138.29213 30090 ft 370 kts 266°
2026-02-17 04:21 34.94702 138.22953 30092 ft 370 kts 266°
2026-02-17 04:22 34.94341 138.16694 30085 ft 370 kts 265°
2026-02-17 04:23 34.93796 138.07343 30088 ft 371 kts 266°
2026-02-17 04:23 34.93426 138.01073 30090 ft 371 kts 266°
2026-02-17 04:24 34.93055 137.94795 30083 ft 371 kts 266°
2026-02-17 04:24 34.92680 137.88516 30087 ft 371 kts 266°
2026-02-17 04:25 34.92298 137.82237 30087 ft 372 kts 266°
2026-02-17 04:25 34.91915 137.75938 30095 ft 373 kts 265°
2026-02-17 04:26 34.91488 137.69677 30096 ft 374 kts 263°
2026-02-17 04:26 34.90212 137.63522 30103 ft 377 kts 253°
2026-02-17 04:27 34.87466 137.54562 30097 ft 376 kts 253°
2026-02-17 04:27 34.85651 137.48566 30091 ft 376 kts 253°
2026-02-17 04:28 34.83905 137.42604 30113 ft 376 kts 254°
2026-02-17 04:28 34.82202 137.36580 30106 ft 376 kts 254°
2026-02-17 04:29 34.80493 137.30558 30110 ft 376 kts 254°
2026-02-17 04:29 34.78770 137.24530 30108 ft 377 kts 254°
2026-02-17 04:30 34.77044 137.18511 30117 ft 377 kts 254°
2026-02-17 04:31 34.74450 137.09487 30123 ft 376 kts 254°
2026-02-17 04:31 34.72721 137.03487 30129 ft 376 kts 254°
2026-02-17 04:32 34.70428 136.97774 30132 ft 385 kts 242°
2026-02-17 04:32 34.67048 136.92691 30113 ft 390 kts 232°
2026-02-17 04:33 34.62748 136.88557 30112 ft 395 kts 226°
2026-02-17 04:33 34.58344 136.84549 30115 ft 395 kts 227°
2026-02-17 04:34 34.53965 136.80537 30114 ft 394 kts 227°
2026-02-17 04:34 34.49596 136.76520 30107 ft 394 kts 227°
2026-02-17 04:35 34.43050 136.70501 30108 ft 394 kts 227°
2026-02-17 04:35 34.38705 136.66511 30102 ft 395 kts 227°
2026-02-17 04:36 34.34324 136.62494 30106 ft 395 kts 227°
2026-02-17 04:36 34.29941 136.58480 30102 ft 395 kts 227°
2026-02-17 04:37 34.25590 136.54406 30100 ft 396 kts 227°
2026-02-17 04:37 34.21243 136.50309 30093 ft 396 kts 227°
2026-02-17 04:38 34.16884 136.46217 30102 ft 397 kts 227°
2026-02-17 04:39 34.10321 136.40096 30097 ft 399 kts 225°
2026-02-17 04:39 34.05416 136.36694 30099 ft 410 kts 218°
2026-02-17 04:40 34.00373 136.33552 30088 ft 410 kts 218°
2026-02-17 04:40 33.95309 136.30377 30091 ft 410 kts 218°
2026-02-17 04:41 33.90253 136.27196 30097 ft 410 kts 218°
2026-02-17 04:41 33.85208 136.24022 30097 ft 409 kts 218°
2026-02-17 04:42 33.80159 136.20849 30089 ft 409 kts 218°
2026-02-17 04:42 33.75119 136.17686 30089 ft 409 kts 218°
2026-02-17 04:43 33.67550 136.12945 30093 ft 409 kts 218°
2026-02-17 04:43 33.62498 136.09784 30090 ft 409 kts 218°
2026-02-17 04:44 33.57481 136.06651 30101 ft 409 kts 218°
2026-02-17 04:44 33.52426 136.03497 30093 ft 410 kts 218°
2026-02-17 04:45 33.47372 136.00349 30099 ft 410 kts 218°
2026-02-17 04:45 33.42306 135.97198 30092 ft 410 kts 218°
2026-02-17 04:46 33.37243 135.94053 30098 ft 410 kts 218°
2026-02-17 04:47 33.29638 135.89336 30092 ft 410 kts 218°
2026-02-17 04:47 33.24569 135.86198 30098 ft 410 kts 218°
2026-02-17 04:48 33.19505 135.83066 30089 ft 409 kts 218°
2026-02-17 04:48 33.14443 135.79940 30104 ft 409 kts 218°
2026-02-17 04:49 33.09391 135.76823 30099 ft 409 kts 218°
2026-02-17 04:49 33.04331 135.73706 30105 ft 409 kts 218°
2026-02-17 04:50 32.99265 135.70588 30098 ft 410 kts 218°
2026-02-17 04:50 32.94228 135.67493 30099 ft 411 kts 218°
2026-02-17 04:51 32.86574 135.62797 30093 ft 413 kts 218°
2026-02-17 04:51 32.81451 135.59660 30094 ft 415 kts 218°
2026-02-17 04:52 32.76310 135.56515 30098 ft 416 kts 219°
2026-02-17 04:52 32.71153 135.53366 30095 ft 417 kts 219°
2026-02-17 04:53 32.65993 135.50219 30100 ft 417 kts 219°
2026-02-17 04:53 32.61690 135.47598 30092 ft 417 kts 220°
2026-02-17 04:54 32.56527 135.44456 30100 ft 417 kts 220°
2026-02-17 04:55 32.48782 135.39752 30097 ft 416 kts 220°
2026-02-17 04:55 32.43626 135.36624 30093 ft 416 kts 221°
2026-02-17 04:56 32.38510 135.33525 30088 ft 415 kts 221°
2026-02-17 04:56 32.33340 135.30396 30092 ft 415 kts 221°
2026-02-17 04:57 32.28229 135.27307 30100 ft 414 kts 221°
2026-02-17 04:57 32.23094 135.24207 30095 ft 414 kts 222°
2026-02-17 04:58 32.17968 135.21116 30096 ft 414 kts 222°
2026-02-17 04:58 32.12844 135.18015 30098 ft 410 kts 224°
2026-02-17 04:59 32.08452 135.14119 30104 ft 387 kts 236°
2026-02-17 04:59 32.06612 135.11849 30099 ft 379 kts 243°
2026-02-17 04:59 32.03395 135.06915 30096 ft 381 kts 244°
2026-02-17 05:00 32.00176 135.01947 30095 ft 382 kts 244°
2026-02-17 05:00 31.96941 134.96985 30090 ft 382 kts 244°
2026-02-17 05:01 31.93725 134.92069 30098 ft 381 kts 244°
2026-02-17 05:01 31.90491 134.87137 30093 ft 380 kts 244°
2026-02-17 05:02 31.87266 134.82224 30099 ft 379 kts 244°
2026-02-17 05:03 31.82436 134.74878 30095 ft 378 kts 244°
2026-02-17 05:03 31.79215 134.69986 30096 ft 377 kts 244°
2026-02-17 05:04 31.76002 134.65114 30094 ft 377 kts 244°
2026-02-17 05:04 31.72798 134.60260 30096 ft 376 kts 244°
2026-02-17 05:05 31.69594 134.55412 30088 ft 375 kts 244°
2026-02-17 05:05 31.66393 134.50576 30098 ft 375 kts 244°
2026-02-17 05:06 31.63199 134.45756 30091 ft 374 kts 244°
2026-02-17 05:06 31.60002 134.40939 30096 ft 373 kts 244°
2026-02-17 05:07 31.55220 134.33745 30096 ft 372 kts 244°
2026-02-17 05:07 31.52032 134.28955 30096 ft 372 kts 244°
2026-02-17 05:08 31.48873 134.24214 30098 ft 371 kts 244°
2026-02-17 05:08 31.45690 134.19443 30098 ft 370 kts 244°
2026-02-17 05:09 31.42517 134.14694 30078 ft 370 kts 244°
2026-02-17 05:09 31.39341 134.09946 30094 ft 369 kts 244°
2026-02-17 05:10 31.36173 134.05216 30093 ft 369 kts 244°
2026-02-17 05:11 31.31427 133.98139 30092 ft 368 kts 244°
2026-02-17 05:11 31.28278 133.93450 30089 ft 368 kts 244°
2026-02-17 05:12 31.25111 133.88742 30092 ft 368 kts 244°
2026-02-17 05:12 31.21942 133.84036 30089 ft 368 kts 244°
2026-02-17 05:13 31.18775 133.79338 30097 ft 368 kts 244°
2026-02-17 05:13 31.15590 133.74618 30081 ft 369 kts 244°
2026-02-17 05:14 31.12416 133.69922 30089 ft 369 kts 243°
2026-02-17 05:14 31.09236 133.65220 30086 ft 369 kts 243°
2026-02-17 05:15 31.04464 133.58176 30088 ft 369 kts 243°
2026-02-17 05:15 31.01275 133.53475 30092 ft 369 kts 243°
2026-02-17 05:16 30.98104 133.48804 30082 ft 370 kts 243°
2026-02-17 05:16 30.94913 133.44108 30088 ft 370 kts 243°
2026-02-17 05:17 30.91711 133.39400 30087 ft 371 kts 243°
2026-02-17 05:17 30.88498 133.34681 30080 ft 372 kts 243°
2026-02-17 05:18 30.85287 133.29973 30077 ft 372 kts 243°
2026-02-17 05:19 30.80456 133.22899 30074 ft 372 kts 243°
2026-02-17 05:19 30.77235 133.18188 30082 ft 372 kts 243°
2026-02-17 05:20 30.74010 133.13477 30078 ft 372 kts 243°
2026-02-17 05:20 30.70780 133.08765 30068 ft 373 kts 243°
2026-02-17 05:21 30.67567 133.04083 30070 ft 373 kts 242°
2026-02-17 05:21 30.62706 132.97011 30078 ft 373 kts 242°
2026-02-17 05:22 30.59460 132.92296 30077 ft 374 kts 242°
2026-02-17 05:23 30.54586 132.85226 30072 ft 374 kts 242°
2026-02-17 05:23 30.51331 132.80511 30067 ft 374 kts 242°
2026-02-17 05:24 30.48073 132.75798 30069 ft 374 kts 242°
2026-02-17 05:24 30.44832 132.71115 30067 ft 375 kts 242°
2026-02-17 05:25 30.41570 132.66405 30076 ft 375 kts 242°
2026-02-17 05:25 30.38292 132.61679 30060 ft 376 kts 242°
2026-02-17 05:26 30.35002 132.56943 30074 ft 377 kts 242°
2026-02-17 05:26 30.31713 132.52213 30067 ft 377 kts 242°
2026-02-17 05:27 30.26786 132.45139 30067 ft 376 kts 242°
2026-02-17 05:27 30.23515 132.40449 30068 ft 376 kts 242°
2026-02-17 05:28 30.20223 132.35733 30071 ft 377 kts 242°
2026-02-17 05:28 30.16916 132.31001 30067 ft 377 kts 241°
2026-02-17 05:29 30.13616 132.26287 30059 ft 378 kts 241°
2026-02-17 05:29 30.10307 132.21564 30069 ft 378 kts 241°
2026-02-17 05:30 30.06993 132.16839 30075 ft 379 kts 241°